This demonstration page uses our WeatherBlox Daily Observations layout. Learn more.

Left ArrowRight Arrow

39.29038, -76.61219

Hourly Observations for February 8, 2021

Temp ( °F °C ) Dew Point ( °F °C ) Humidity (%) Winds ( mph kmh ) Pressure ( in mb ) Visibility ( mi km ) Precip ( " mm )
12:54 am 00:54 Clear 27 -2.8 9 -12.8 46 46 NW 5 7 30.26 1025 10 16 N/A
1:54 am 01:54 Clear 25 -3.9 9 -12.8 50 50 NW 7 11 30.28 1025 10 16 N/A
2:54 am 02:54 Mostly Clear 25 -3.9 8 -13.3 48 48 NNW 5 7 30.30 1026 10 16 N/A
3:54 am 03:54 Mostly Clear 24 -4.4 8 -13.3 50 50 NNW 3 6 30.33 1027 10 16 N/A
4:54 am 04:54 Mostly Clear 24 -4.4 8 -13.3 50 50 N 3 6 30.35 1028 10 16 N/A
5:54 am 05:54 Partly Cloudy 24 -4.4 8 -13.3 50 50 NNE 9 15 30.37 1029 10 16 N/A
6:54 am 06:54 Mostly Clear 22 -5.6 6 -14.4 50 50 NNE 7 11 30.39 1029 10 16 N/A
7:54 am 07:54 Mostly Sunny 24 -4.4 7 -13.9 48 48 N 6 9 30.41 1030 10 16 N/A
8:54 am 08:54 Mostly Sunny 26 -3.3 6 -14.4 42 42 NNE 8 13 30.43 1030 10 16 N/A
9:54 am 09:54 Mostly Sunny 29 -1.7 5 -15 36 36 N 5 7 30.45 1031 10 16 N/A
10:54 am 10:54 Mostly Sunny 30 -1.1 4 -15.6 33 33 N N/A 30.46 1032 10 16 N/A
11:54 am 11:54 Mostly Sunny 32 undefined 5 -15 32 32 N N/A 30.45 1031 10 16 N/A
12:54 pm 12:54 Mostly Sunny 35 1.7 8 -13.3 32 32 S 5 7 30.42 1030 10 16 N/A
1:54 pm 13:54 Mostly Sunny 36 2.2 10 -12.2 34 34 SSE 8 13 30.40 1029 10 16 N/A
2:54 pm 14:54 Mostly Sunny 37 2.8 12 -11.1 36 36 N N/A 30.38 1029 10 16 N/A
3:54 pm 15:54 Partly Cloudy 36 2.2 13 -10.6 39 39 SSE 7 11 30.37 1029 10 16 N/A
4:54 pm 16:54 Mostly Sunny 34 1.1 14 -10 44 44 ESE 9 15 30.38 1029 10 16 N/A
5:54 pm 17:54 Partly Cloudy 31 -0.6 15 -9.4 52 52 SE 5 7 30.39 1029 10 16 N/A
6:54 pm 18:54 Mostly Cloudy 31 -0.6 15 -9.4 52 52 N N/A 30.39 1029 10 16 N/A
7:54 pm 19:54 Mostly Cloudy 30 -1.1 15 -9.4 54 54 N N/A 30.38 1029 10 16 N/A
8:54 pm 20:54 Mostly Cloudy 30 -1.1 16 -8.9 56 56 N N/A 30.38 1029 10 16 N/A
9:54 pm 21:54 Partly Cloudy 29 -1.7 17 -8.3 61 61 E 3 6 30.39 1029 10 16 N/A
10:54 pm 22:54 Mostly Clear 28 -2.2 17 -8.3 63 63 ESE 6 9 30.36 1028 10 16 N/A
11:54 pm 23:54 Partly Cloudy 28 -2.2 17 -8.3 63 63 N N/A 30.35 1028 10 16 N/A

Powered by AerisWeather